COSMOS 1375 DEB, 16379

Orbit data source: Space-Track

COSMOS 1375 DEB, 16379 is space debris in LEO originally from a launch on Sun, 06 Jun 1982 UTC launched from the Plesetsk Missile And Space Complex (PKMTR). Debris objects in space refer to the collection of defunct objects orbiting the Earth. Examples of debris include non-operational satellites, rocket bodies, and fragments generated from explosions, collisions, or faulty payload assembly.

Loading next visibility...
Identifier
16379, 1982-055T
Orbit
LEO
Country
Flag of CISCIS
Related business
Manufacturer
Unknown
Mission
Spacecraft
Bus & Motor
Unknown
Mass
Unknown
Launch date (UTC)
1982-06-06 (44 years ago)
Launch vehicle
Unknown
Launch site
Plesetsk Missile And Space Complex (PKMTR)
Object type
Payload
Rocket body
Debris
Shape & HBR
Unknown shape, 0.3 m
Radar Cross Section
Medium (>0.1 m² and <1 m²)

Expand to show TLE details & history
Last TLE update: 2 days ago

TLE from 2 days ago
0 COSMOS 1375 DEB
1 16379U 82055T   26171.46486815 -.00000047  00000-0  34352-4 0  9998
2 16379  65.8356 219.0586 0007661  98.5893 357.8219 13.78138593625550
Epoch: 2026-06-20T11:09Z
TLE epoch observation values (Epoch: 2026-06-20T11:09:24.608Z)
Latitude
65.16203°
Longitude
-111.61402°
Altitude
975.207 km
Speed
7.373 km/s
True Right ascension
21h 37m 40s
True Declination
65° 02' 04"
Sunlit
Object was in daylight at epoch
Visualization orbit readout
Latitude
Unknown
Longitude
Unknown
Altitude
Unknown
Speed
Unknown
Apparent Right ascension
Unknown
Apparent Declination
Unknown
Sunlit
N/A
Visualization observer readout
Local Sidereal Time
23:08:11
Azimuth
Unknown
Elevation
Unknown
Doppler factor
Unknown
Orbital elements
Apogee altitude
974.64 km
Perigee altitude
963.382 km
Semi-major axis
7,347.148 km
Eccentricity
0.00077
Inclination
65.8356°
RAAN
219.0586°
Arg. of periapsis
98.5893°
True anomaly
357.81856°
Mean anomaly
357.8219°
Eccentric anomaly
357.82023°
Mean motion
3.44639 °/min
Orbital period
104.46 mins
BSTAR
0.000034352
Loading maneuver chart data...
Computing Atmospheric mass density...
Loading historical data...
Loading historical data...
Loading historical data...
Loading historical data...
Loading historical data...
Loading historical data...
Loading historical data...

Documentation

Showing up to 5 results
|